Location: Bakhuizen
(52.8696°N, 5.4575°E)
Time: 05:34:08
(UTC+00:00)

Nimbus 7 Rocket - Pass Details

Date: 03 October 2021
Orbit: 922 x 965 km, 99.4° (Epoch: 17 October)

Event Time Altitude Azimuth Distance (km) Brightness Sun altitude
Rises 22:54:34 0° 20° (NNE) 3,592 8.1 -41.0°
Reaches altitude 10° 22:57:08 10° 27° (NNE) 2,649 7.2 -41.1°
Enters shadow 22:58:44 19° 34° (NE) 2,099 6.5 -41.1°
